Theta_e
349 347 348 347 346 349 348 347 347 346 345 346 345 346 345 342 342 340 342 341 339 337 338 338 338 337 331 329 328 333 335 336 343 341 345 347 346 344 351 350 349 348 347 346 345 343 342 341 340 340 338 337 336 334 335 334 334 333 332 331 330 330 332 332 331 331 331 331 331 331 330 330 331 332 333 333 333 335 336 336 337 337 336 336 336
351 351 348 351 348 347 348 348 345 343 347 345 345 345 344 344 344 342 340 342 342 339 341 340 340 337 331 329 329 328 336 335 333 336 339 345 343 345 351 350 350 348 347 347 346 344 343 343 341 339 339 339 337 336 335 334 334 334 333 332 331 330 330 331 332 332 332 332 332 331 331 331 332 332 333 333 335 336 337 337 337 337 336 337 336
352 353 353 350 350 348 350 349 347 344 346 343 344 343 348 348 344 345 345 344 345 344 342 340 340 338 337 334 329 330 329 332 334 338 342 339 339 344 346 351 349 347 348 347 347 345 344 343 343 340 339 339 338 337 336 335 335 335 334 334 333 332 332 332 333 333 333 332 332 332 331 332 332 333 333 335 336 337 337 338 337 336 337 336 336
352 350 350 351 348 351 350 347 347 346 347 342 344 344 348 347 346 344 345 342 341 342 341 340 340 340 340 338 335 333 330 331 332 336 337 340 343 342 342 347 350 349 348 348 347 346 344 344 343 342 340 340 339 338 337 336 335 335 336 335 335 334 334 334 334 334 332 332 332 332 332 332 333 335 336 337 337 337 337 337 336 336 337 336 336
350 351 348 350 351 350 345 345 349 349 347 344 342 348 347 347 345 346 344 344 342 341 342 344 342 342 342 339 338 335 333 331 333 333 336 336 342 341 345 344 346 349 349 348 347 347 345 344 344 344 342 341 340 340 338 337 335 335 336 336 336 336 335 335 336 335 334 333 332 332 332 333 335 336 337 337 337 337 335 336 336 337 336 335 335
352 351 351 348 349 349 347 348 348 348 345 344 345 346 343 344 345 345 342 344 341 341 342 341 341 343 341 341 338 337 336 334 332 332 338 336 336 340 340 345 344 345 347 348 348 347 346 346 345 344 343 342 341 340 340 339 337 336 335 335 335 337 337 337 337 336 335 334 333 333 332 334 335 336 337 337 338 334 335 336 336 337 336 336 335
354 353 349 350 351 350 350 347 348 348 346 347 346 346 344 342 345 342 344 344 341 341 341 338 338 340 343 341 338 339 339 337 336 332 333 336 338 338 340 346 345 344 344 344 347 347 346 346 346 345 345 343 341 340 341 340 339 338 337 336 335 338 338 337 337 337 336 334 334 333 333 334 335 336 337 338 338 337 337 334 335 337 337 336 336
356 355 352 347 345 349 347 350 349 347 346 347 345 344 343 344 346 345 340 340 341 338 339 338 339 340 342 341 339 339 338 338 336 335 334 337 336 337 341 342 345 344 344 342 343 346 347 346 346 346 346 345 343 341 342 341 341 340 339 338 337 337 338 338 338 337 336 335 334 334 334 335 336 337 337 338 338 338 338 338 338 337 336 336 336
357 354 357 350 349 349 349 346 349 348 347 347 345 345 342 339 340 342 341 336 337 338 339 339 339 338 339 340 340 341 338 337 337 336 336 332 332 339 338 339 344 351 345 343 342 342 346 347 346 346 346 346 344 343 342 342 342 341 340 339 338 339 339 339 338 337 336 336 335 334 334 335 336 337 336 337 336 338 338 338 338 337 337 337 336
358 354 353 351 349 349 348 349 348 349 348 347 346 344 342 342 339 340 341 338 336 335 336 338 339 337 338 340 341 341 340 339 338 338 335 333 331 333 336 336 343 346 345 345 344 342 342 345 347 346 346 346 345 344 343 342 342 343 342 340 339 339 340 340 339 338 337 337 336 336 335 335 336 336 336 338 338 338 339 338 338 338 337 336 335
355 355 354 350 350 349 347 347 345 348 347 345 344 343 343 341 339 337 337 338 337 335 336 337 340 338 337 338 341 341 340 340 340 339 337 335 333 333 333 337 338 345 345 345 346 345 343 342 342 342 343 346 345 344 344 343 343 342 342 341 341 341 340 340 340 339 338 338 337 338 337 337 337 336 337 338 338 339 339 339 339 339 337 337 335
353 355 353 353 350 346 346 347 349 347 345 343 342 343 342 337 336 335 334 336 338 337 337 339 337 334 333 336 339 340 340 339 338 337 337 336 334 332 331 334 339 344 342 345 344 345 344 342 340 339 338 343 346 344 344 344 343 344 342 341 341 342 340 338 341 340 340 339 338 339 339 339 337 337 338 338 339 340 340 340 339 339 338 337 335
352 352 352 351 351 350 348 346 346 347 343 340 342 342 341 338 338 337 335 333 334 337 339 340 335 331 334 334 336 339 340 341 339 337 338 338 336 332 332 335 335 336 337 343 345 347 345 345 340 338 337 337 342 345 344 344 343 343 343 342 341 341 341 340 341 341 341 340 340 340 340 340 339 339 339 338 338 340 340 340 339 339 338 336 334
351 353 353 351 348 347 346 346 347 344 342 343 343 344 338 338 337 335 337 332 331 335 341 335 331 329 328 330 332 334 335 337 337 336 337 338 338 335 334 334 334 338 346 344 344 345 343 343 344 342 339 338 341 341 342 342 342 343 344 343 343 342 342 341 341 341 341 341 341 341 341 340 340 339 340 338 339 340 340 340 339 338 337 336 334
347 348 350 350 349 348 347 348 346 346 344 342 343 342 338 335 336 333 334 334 333 336 339 336 331 333 334 327 324 325 330 335 338 337 337 338 338 336 334 332 333 335 339 343 344 344 343 342 344 343 341 341 341 340 340 342 341 342 343 344 343 342 342 342 340 341 342 342 342 342 341 340 340 340 340 339 340 340 339 340 339 338 337 335 333
346 345 347 347 348 347 348 348 346 345 343 341 341 341 339 337 335 337 336 331 332 334 339 339 335 333 324 325 327 325 319 323 328 334 337 336 337 336 335 332 332 332 338 339 341 343 342 342 342 343 344 343 342 342 339 338 340 342 343 343 343 343 342 342 341 340 341 342 342 341 341 341 341 341 339 340 340 339 339 340 339 338 336 334 332
340 339 339 342 345 346 345 344 345 346 346 341 341 342 342 340 339 338 336 334 332 335 337 339 337 337 331 327 324 321 321 326 327 330 336 334 335 336 334 333 332 334 336 337 338 341 341 340 339 342 344 343 343 343 342 340 338 341 341 344 343 343 343 342 341 340 341 342 342 341 341 341 340 339 339 340 340 339 339 339 338 337 336 334 331
331 331 331 334 337 338 342 345 344 345 344 344 342 341 340 341 340 339 337 338 334 332 333 338 338 335 337 334 331 324 324 329 325 320 337 336 335 336 335 334 332 331 336 334 336 337 339 339 340 341 342 341 341 342 343 344 344 340 339 340 344 343 343 343 343 341 342 343 342 342 342 341 339 340 340 340 339 338 339 339 338 337 335 333 331
333 329 327 327 329 333 332 334 335 338 341 343 342 341 341 340 341 339 341 337 333 329 331 333 335 336 336 336 336 336 336 328 322 325 320 329 334 333 334 336 333 331 333 335 334 335 337 340 340 342 340 339 340 342 342 343 344 344 345 343 344 344 344 343 343 342 341 342 342 342 342 341 341 340 339 339 338 338 338 339 337 336 334 332 331
330 328 328 323 327 328 329 329 329 330 333 334 338 341 341 342 341 341 338 337 336 332 332 333 330 331 334 331 332 336 334 333 330 325 323 319 322 335 337 336 336 336 339 336 334 335 337 337 337 340 340 340 341 343 342 340 340 341 343 346 345 345 344 344 344 343 343 342 342 342 341 341 341 340 339 338 338 338 338 338 337 335 334 332 331
330 328 330 324 324 325 326 325 326 326 329 326 328 328 333 336 339 340 338 338 337 335 333 330 330 329 331 329 332 330 329 330 331 330 322 320 321 324 326 334 336 336 337 335 335 335 336 335 335 338 341 342 343 342 341 339 340 340 343 345 345 346 345 345 344 343 343 342 342 341 341 341 341 340 339 338 339 338 339 338 336 334 333 331 330
333 330 329 323 323 324 323 321 322 322 326 324 325 328 329 331 334 337 339 337 338 337 334 334 334 334 331 330 327 328 328 324 328 328 327 327 322 323 326 328 327 331 336 336 334 334 336 337 335 336 338 341 342 341 340 339 341 342 341 343 344 346 345 345 344 343 343 342 342 342 341 341 340 340 339 338 338 337 340 338 336 334 332 331 330
330 331 330 327 326 327 324 320 322 324 324 324 324 324 325 327 329 329 332 336 336 337 335 334 333 331 331 331 329 328 326 325 327 325 325 325 324 324 326 327 328 328 333 338 340 336 335 335 335 336 336 340 341 342 341 341 341 340 339 340 344 346 346 345 344 343 343 342 342 342 342 340 340 340 338 338 337 337 341 339 336 334 332 331 330
330 329 328 327 327 327 327 324 323 323 323 323 322 321 320 322 324 325 325 329 336 337 336 334 333 332 332 332 330 331 330 329 328 330 328 326 325 324 325 328 329 330 334 338 344 338 334 334 336 335 336 339 342 342 342 342 342 338 338 339 342 345 346 346 345 344 343 342 342 342 342 341 340 339 338 338 337 337 340 339 337 334 332 331 331
326 325 326 325 324 323 323 323 323 325 324 320 319 318 320 320 321 322 323 323 326 333 335 335 334 332 331 334 334 331 330 331 331 329 329 327 327 324 326 329 326 327 332 335 334 338 336 336 335 337 337 338 343 342 343 343 341 337 336 335 337 342 345 346 345 344 344 343 343 342 342 341 340 339 338 338 337 337 340 338 336 333 332 331 330
323 322 324 322 322 323 323 323 323 321 320 319 319 319 318 318 318 318 319 321 323 324 328 334 335 335 334 332 332 331 332 332 331 329 328 328 325 325 325 327 329 326 330 332 335 330 334 336 337 338 339 339 340 342 342 342 342 336 334 337 336 339 342 345 345 344 344 344 343 342 342 341 340 339 338 338 337 337 340 338 335 333 332 332 330
322 323 324 323 322 322 322 321 321 321 321 321 321 319 319 319 319 318 319 320 321 322 323 329 334 334 334 334 333 333 333 333 331 330 329 328 327 327 327 323 324 325 325 329 332 330 331 338 336 335 338 339 336 340 343 342 339 335 334 337 338 335 337 341 344 344 344 343 343 342 341 341 340 338 338 337 337 336 339 336 334 334 333 332 331
323 323 323 323 322 322 322 321 321 321 321 320 320 318 318 318 318 317 316 319 317 319 319 321 326 334 334 335 334 333 334 334 332 331 331 331 331 330 328 326 322 319 324 324 326 326 333 331 337 338 336 338 338 341 342 341 341 334 333 337 339 335 333 337 341 343 344 343 342 342 341 340 339 338 337 336 337 337 337 336 335 334 333 332 331
321 322 321 321 321 322 321 322 322 322 321 320 320 319 319 318 317 317 316 318 318 317 318 319 321 322 329 334 334 334 334 335 334 332 331 332 332 331 330 327 326 322 320 320 323 324 329 332 329 335 338 338 337 342 343 343 340 336 336 340 340 339 331 330 334 338 342 343 342 342 341 340 339 337 336 336 337 338 338 337 336 335 334 333 332
322 322 321 320 320 322 319 319 320 321 322 321 320 319 320 319 318 317 317 317 316 317 318 319 319 321 323 326 333 334 335 335 333 332 332 332 333 331 330 329 330 325 323 321 321 328 329 336 334 332 338 336 340 340 343 342 336 338 339 341 341 339 328 327 330 334 337 337 338 340 340 338 336 336 335 335 339 339 338 338 337 335 334 334 331
320 319 319 319 319 319 319 318 318 317 317 318 319 320 319 318 319 319 319 318 316 315 316 316 317 318 317 318 320 326 334 335 334 333 333 334 334 333 331 331 331 329 327 325 321 328 332 327 333 337 336 337 336 338 340 341 337 337 340 340 341 333 328 330 327 329 330 329 331 331 333 336 336 336 335 336 340 341 339 338 336 336 335 332 325
319 318 317 317 317 316 316 315 315 316 316 317 317 316 317 318 318 318 318 318 316 315 314 315 315 315 316 316 317 321 329 334 334 333 333 334 334 332 332 332 332 332 330 326 323 323 332 329 332 336 338 338 339 335 339 339 338 333 341 341 337 328 333 334 326 326 326 324 325 326 327 333 336 335 335 335 337 338 338 336 335 334 331 324 322
316 315 315 314 314 314 313 314 313 313 314 315 316 316 315 315 315 316 316 316 315 315 316 315 314 314 314 315 316 317 321 327 332 332 332 333 333 332 333 330 329 330 330 327 324 324 329 334 334 333 338 339 338 338 337 337 337 337 336 337 335 336 335 334 330 322 322 321 321 320 320 323 328 332 333 334 333 330 330 331 327 324 323 323 322
318 317 316 316 315 314 313 312 312 313 313 313 313 314 313 313 314 315 314 315 315 315 315 314 315 315 314 313 315 317 318 318 326 334 334 334 334 332 333 331 330 330 332 329 326 326 325 332 331 336 335 337 334 338 335 335 335 338 336 335 337 336 334 330 326 324 318 318 318 318 318 319 321 323 327 332 327 319 320 321 320 321 323 322 321
316 316 316 316 315 315 314 314 314 314 314 313 314 314 314 313 312 312 313 313 312 313 314 314 315 314 313 313 313 314 319 319 321 329 334 333 334 333 333 332 331 330 331 331 328 325 325 327 332 331 333 336 335 334 335 338 337 338 335 336 336 335 332 329 324 320 314 316 316 316 317 318 319 320 323 327 320 318 319 317 316 316 316 316 316
314 315 315 315 314 314 314 313 313 312 313 313 313 313 313 312 312 312 312 312 313 313 313 313 314 314 313 312 312 313 315 317 318 322 332 334 333 333 333 333 332 331 331 331 330 328 328 327 331 331 333 333 334 337 336 337 336 336 335 335 335 334 331 327 321 317 313 313 314 314 315 316 316 317 319 319 317 317 317 316 315 314 314 314 314
313 313 314 314 313 313 313 312 312 312 312 312 312 312 312 312 312 312 312 311 312 312 312 312 315 313 314 313 313 312 312 313 316 318 325 333 334 332 332 332 331 331 331 330 329 330 327 326 328 332 333 333 334 334 334 332 333 335 335 333 333 332 326 323 319 313 311 311 312 313 313 314 315 315 316 317 316 316 316 315 314 313 312 312 312
311 312 312 312 312 311 311 311 311 311 311 310 310 310 310 311 311 312 312 312 313 312 312 312 312 313 313 313 314 314 313 312 313 316 320 327 332 332 331 331 330 330 330 329 330 329 328 326 326 328 331 330 328 332 333 332 331 331 331 333 332 325 322 317 315 314 313 312 313 314 311 313 312 313 316 316 316 315 315 314 313 312 312 312 311
310 310 311 310 311 310 310 311 311 310 310 311 311 311 311 311 311 310 311 312 312 313 313 312 312 313 313 313 314 314 313 312 313 313 316 321 330 331 331 331 331 330 329 329 329 328 327 327 328 328 329 330 329 327 333 333 332 332 329 328 324 322 320 318 316 316 315 315 314 313 316 317 316 319 314 316 316 315 314 313 313 312 312 311 310
311 310 310 310 310 311 310 310 311 311 311 310 310 310 311 310 311 311 311 312 312 312 313 313 313 313 313 313 313 313 313 313 313 314 316 317 324 328 331 331 330 330 329 329 328 328 327 326 326 326 327 328 328 331 333 331 329 330 330 327 320 319 318 319 319 317 316 316 314 314 315 315 315 314 314 315 316 316 315 314 313 314 313 312 311
311 310 310 309 309 309 309 309 309 310 310 310 310 310 310 310 311 310 311 311 311 311 312 312 313 312 312 313 313 314 316 320 320 319 320 321 319 323 330 331 330 329 329 328 326 325 326 326 325 326 326 326 326 327 328 327 327 326 329 329 322 320 319 317 318 319 318 315 316 314 314 316 317 319 321 320 319 317 317 316 315 314 314 312 311
309 309 309 309 308 308 307 307 308 309 309 310 312 310 309 311 310 310 310 310 310 310 310 311 312 312 312 313 315 319 319 319 319 315 312 312 315 319 325 328 330 329 327 326 325 326 325 324 324 324 322 323 326 327 328 328 330 331 328 327 321 321 319 316 316 317 319 317 316 315 316 317 317 318 321 320 320 321 320 319 318 316 313 311 310
309 309 310 308 307 308 307 307 307 308 309 309 308 301 301 303 308 309 309 309 309 309 309 309 309 310 311 312 313 316 318 318 317 313 310 310 310 309 313 321 328 329 327 326 325 325 324 322 324 325 324 325 326 328 329 329 330 328 328 327 322 320 317 313 310 315 320 317 316 316 316 318 317 315 318 320 321 322 321 321 314 313 311 310 309
308 309 308 307 307 307 307 307 307 308 308 308 301 301 300 299 303 308 308 308 308 308 308 308 309 310 310 311 312 314 314 315 315 316 315 312 308 307 308 310 315 318 320 326 325 323 324 323 324 325 324 325 327 328 328 328 328 329 329 327 323 321 317 315 314 312 318 319 316 314 315 319 320 317 316 319 321 323 324 316 310 310 309 309 309
308 307 307 307 307 307 307 306 306 307 307 305 301 301 300 299 299 304 306 307 307 307 307 308 308 309 309 310 310 312 313 317 317 313 312 312 312 310 309 311 313 312 306 308 315 328 327 326 325 325 325 326 327 328 330 329 329 328 328 327 325 322 320 318 316 317 318 320 317 314 314 317 319 317 317 319 319 321 321 312 310 309 309 308 308
307 307 307 307 307 307 307 307 306 307 307 306 301 300 300 299 298 300 306 306 307 307 307 307 308 308 309 309 309 310 311 312 312 312 312 311 311 314 317 315 317 321 315 307 309 313 324 329 328 325 329 331 329 330 331 328 329 328 328 327 326 323 321 320 320 320 321 322 317 316 314 316 319 318 316 319 319 320 320 313 309 309 308 308 307
306 306 306 306 307 308 307 307 307 307 307 304 299 298 297 297 296 298 304 306 306 307 307 308 308 308 308 309 309 309 310 310 311 312 311 311 312 314 316 321 319 321 323 322 321 322 324 328 328 328 330 332 332 333 333 332 332 332 331 329 328 325 325 325 324 322 321 322 321 318 313 316 319 317 317 320 319 320 319 310 309 308 307 307 307
307 307 307 307 306 306 307 306 306 306 309 303 300 300 299 299 299 304 304 304 305 306 306 307 307 308 308 308 308 309 309 310 312 306 309 312 310 309 311 317 323 323 325 326 317 318 327 328 328 328 330 334 325 331 331 333 335 334 333 332 330 326 324 322 320 319 318 322 324 320 316 315 319 318 318 322 322 317 315 314 309 309 308 307 306
305 305 306 306 306 306 306 308 307 307 308 305 300 298 298 298 300 304 305 305 305 305 306 307 307 307 308 308 308 308 308 309 308 301 300 307 308 308 308 309 314 324 326 328 315 309 310 311 312 313 313 312 311 312 311 315 327 331 332 329 326 325 322 320 319 317 317 320 323 324 319 315 318 319 320 321 319 315 314 313 311 308 307 307 306
305 306 306 306 307 307 307 306 307 306 305 305 300 299 299 298 301 304 305 305 304 304 305 306 307 307 308 313 313 308 308 308 304 300 299 306 307 307 307 308 310 316 323 328 328 319 308 307 307 307 308 308 308 308 311 308 311 323 332 326 327 326 322 322 318 318 318 319 321 327 318 315 317 320 320 318 316 316 316 314 312 310 306 305 305
305 306 306 305 305 305 306 305 309 306 305 305 301 299 298 298 301 304 304 304 304 304 305 304 306 306 306 309 312 310 309 308 301 299 298 306 308 307 307 307 308 311 317 326 326 325 320 318 319 319 315 314 320 321 325 310 308 320 332 331 329 326 322 322 321 320 317 317 322 327 319 315 316 321 320 316 314 316 316 314 311 310 310 309 307
Wind_Speed
3 3 3 3 2 4 3 2 1 2 6 4 3 2 2 3 4 5 4 4 3 5 6 9 2 4 5 5 5 2 4 3 1 1 2 1 2 7 13 14 14 14 15 15 13 13 13 14 12 12 12 11 10 10 11 11 10 10 8 7 7 7 7 6 5 5 5 5 5 5 5 5 5 5 6 6 7 7 8 8 8 8 8 8 7
3 1 3 3 5 6 4 1 1 4 5 4 3 3 3 3 3 5 6 3 4 5 6 6 8 7 3 5 4 4 3 3 4 4 0 2 4 6 15 14 14 14 15 15 15 14 13 14 13 13 13 13 10 10 12 11 11 11 9 8 8 7 7 6 5 6 5 5 5 5 5 5 5 4 5 6 7 8 8 8 8 6 6 6 5
2 2 2 2 2 2 2 1 4 4 1 4 4 4 1 2 3 2 2 3 4 4 5 6 8 6 7 7 3 4 4 4 5 4 3 3 3 4 8 14 15 15 16 16 15 15 15 14 14 14 12 12 11 10 10 12 11 12 11 9 9 7 7 7 6 6 6 6 5 5 5 5 4 5 5 7 7 8 8 8 6 6 6 5 5
3 2 0 3 2 2 1 1 0 1 1 3 4 4 1 1 2 1 2 3 4 5 4 4 6 8 7 6 6 9 4 5 4 7 5 1 2 7 5 8 13 15 15 16 14 14 15 15 16 15 14 13 13 12 11 11 12 11 12 11 10 9 8 8 8 6 5 5 6 5 4 5 4 5 6 7 8 8 8 7 5 6 4 3 3
3 2 2 1 2 3 1 2 1 1 1 3 4 2 2 1 2 1 1 1 3 3 4 3 4 6 6 5 6 6 8 8 2 4 11 7 7 4 3 7 7 12 14 15 15 14 15 15 16 16 15 15 15 14 12 13 12 11 12 12 11 10 10 9 8 7 6 5 5 5 5 5 5 6 6 7 8 8 6 6 2 4 2 0 1
4 4 2 2 1 3 3 2 0 0 2 1 2 1 3 3 2 1 2 2 2 4 4 4 4 5 5 5 4 5 7 7 7 6 1 7 7 4 3 5 6 6 8 13 14 14 14 14 15 15 16 16 15 14 14 15 13 11 10 11 11 11 11 10 9 8 7 5 5 6 6 6 6 6 7 7 7 4 6 6 4 3 2 2 2
2 2 4 3 1 2 2 2 3 2 2 1 2 1 2 3 2 2 2 1 2 3 4 4 5 6 6 7 7 6 5 6 8 4 6 3 8 3 5 3 5 5 6 6 10 14 14 14 15 14 16 14 15 14 15 15 14 12 11 11 10 11 11 10 9 9 8 6 6 6 6 6 6 7 7 7 7 5 4 1 6 3 2 3 5
2 2 3 4 4 2 1 2 2 4 5 2 2 2 2 2 1 1 3 3 2 4 2 4 4 5 5 5 5 6 5 6 6 7 7 4 10 11 7 5 4 6 7 6 7 9 16 14 15 15 13 13 14 15 15 15 15 13 13 12 11 11 11 10 9 9 7 7 7 7 7 7 7 7 7 7 7 8 6 4 2 2 3 5 7
1 2 2 3 3 0 3 4 3 3 3 3 1 1 1 1 1 1 2 3 4 4 4 3 4 5 5 6 5 5 6 5 5 5 5 7 5 5 4 2 4 6 7 7 7 7 13 16 15 16 14 12 13 14 16 15 17 15 13 13 12 12 11 11 10 9 9 8 7 8 7 8 8 8 7 5 3 8 6 3 2 4 6 7 9
1 0 3 1 1 1 1 1 3 2 3 3 3 2 3 2 1 2 2 2 3 6 6 5 4 5 5 5 6 6 6 6 5 6 6 8 8 5 9 7 4 5 6 5 7 7 7 13 16 16 15 13 12 14 15 16 16 17 15 14 13 12 12 12 11 11 10 9 9 8 8 8 8 7 7 6 6 6 5 3 3 5 7 9 10
2 1 1 1 1 1 2 2 1 2 2 2 3 2 2 1 1 2 2 2 3 7 7 5 3 4 5 5 5 6 6 6 6 5 6 7 7 9 4 9 8 9 5 5 6 6 7 7 8 8 9 15 13 14 15 16 14 16 16 15 13 13 11 11 12 12 11 10 10 9 9 9 8 7 7 6 7 6 5 1 4 8 8 11 11
2 2 1 2 3 1 3 2 2 2 2 3 3 2 1 1 3 4 4 4 4 8 7 4 3 5 7 8 6 6 6 6 7 7 6 7 7 7 6 8 6 2 5 6 5 5 5 6 8 8 7 11 15 14 15 16 15 15 16 15 15 15 13 9 12 13 12 12 11 11 10 9 8 7 6 4 6 5 2 4 6 9 11 12 12
2 2 1 2 1 1 2 2 2 2 2 3 3 2 1 2 3 2 3 3 6 8 7 3 2 5 5 7 7 6 6 6 7 7 8 6 6 7 6 2 9 8 9 8 6 6 6 6 7 6 7 6 11 15 15 16 15 14 14 14 14 14 12 11 11 13 13 13 12 12 11 9 8 7 4 3 6 5 2 5 8 10 12 13 12
2 1 1 1 1 1 2 3 2 3 3 3 3 3 5 5 3 4 2 3 8 9 3 4 3 4 4 3 4 5 7 7 7 9 9 8 7 6 5 5 4 10 6 5 4 4 5 5 5 7 7 7 8 8 10 11 13 15 14 14 13 14 13 13 12 13 14 14 13 13 11 9 8 6 4 5 5 4 3 6 9 11 13 13 12
2 2 2 1 1 2 2 2 3 1 2 3 3 3 2 5 6 6 5 5 7 9 6 7 5 3 0 2 5 4 2 3 5 8 9 8 7 8 8 8 9 4 7 6 5 4 4 4 5 5 5 5 5 7 8 10 12 15 15 14 12 13 14 14 12 15 15 15 14 12 11 9 8 6 4 5 5 5 5 7 10 12 13 13 12
2 2 2 2 2 2 1 2 3 3 3 3 4 5 5 7 6 7 6 6 6 7 4 5 5 3 3 6 2 1 6 4 5 5 7 10 9 9 9 8 7 5 8 6 5 2 2 4 6 4 4 4 4 5 7 8 13 15 16 15 14 14 15 15 14 12 12 14 13 12 11 9 8 7 5 6 7 6 6 8 11 13 13 13 12
3 3 4 3 3 2 2 2 2 3 3 4 4 4 4 4 5 5 6 6 7 5 3 3 5 6 5 1 1 2 4 3 4 4 4 6 9 10 9 9 6 4 7 7 7 5 5 5 5 5 4 4 4 4 4 7 8 8 11 15 16 15 14 15 15 13 12 12 12 11 10 9 9 7 8 8 8 6 7 9 13 15 15 13 12
3 4 5 5 4 4 3 2 2 3 3 4 4 4 4 4 5 5 6 7 6 6 6 4 6 6 8 7 4 2 1 1 2 3 1 2 4 4 5 5 7 6 8 8 8 6 4 6 5 6 4 5 4 4 4 4 5 6 6 10 18 17 16 15 15 14 13 12 13 12 10 9 8 7 8 9 8 7 8 11 14 15 15 13 12
2 3 3 4 4 3 4 4 4 4 4 3 3 3 3 3 3 4 4 0 2 5 7 5 3 5 7 8 8 4 1 2 4 3 8 2 3 4 5 7 6 8 3 8 8 6 5 4 5 6 4 5 6 5 5 6 7 6 8 11 17 16 17 17 16 15 14 14 13 12 11 10 9 7 9 9 8 8 8 12 14 15 15 13 13
2 3 3 3 3 3 3 3 3 3 4 5 4 4 3 2 3 4 3 4 4 6 7 7 7 4 1 7 8 5 5 5 4 4 5 7 7 3 3 6 6 5 3 8 6 8 7 7 6 7 5 6 7 6 6 6 6 6 6 8 16 17 19 18 17 16 15 15 14 13 12 11 9 9 11 9 9 8 10 14 16 16 15 14 13
2 3 2 3 3 3 3 3 3 3 3 3 3 5 5 5 4 3 3 4 4 4 5 6 7 7 4 6 5 6 5 8 7 6 7 6 9 6 7 3 4 5 3 10 9 7 5 4 7 9 6 6 7 7 7 6 6 7 7 11 10 15 18 19 18 17 16 15 15 14 13 13 11 10 11 10 9 9 13 16 17 16 16 14 14
2 2 2 3 4 4 3 3 4 4 3 3 4 3 3 4 4 4 4 6 5 5 5 5 5 4 2 6 6 6 5 4 7 7 7 8 9 7 5 5 5 4 4 8 14 11 8 8 8 7 8 6 7 6 7 7 7 7 9 13 12 13 17 19 19 18 17 16 15 15 14 14 12 12 11 10 10 10 15 17 17 16 16 15 15
3 2 3 3 3 3 3 4 4 4 4 3 3 4 4 3 3 4 5 5 5 5 6 6 5 5 6 6 7 8 8 7 6 6 7 6 6 8 9 9 8 7 4 6 9 11 10 9 8 7 8 8 8 7 8 8 8 9 11 12 13 13 16 18 18 18 17 16 15 15 15 14 13 13 12 11 10 12 16 18 17 17 16 16 15
2 3 3 4 3 3 3 4 4 3 4 3 3 4 5 4 4 4 4 5 5 5 6 6 7 6 7 6 7 6 5 7 7 5 6 7 6 8 6 4 5 6 3 3 7 10 10 10 9 10 10 10 9 8 8 8 8 12 9 9 10 14 15 17 18 17 17 16 15 15 15 14 14 14 13 12 11 13 16 18 18 17 17 17 16
3 3 3 4 4 5 5 5 4 3 3 4 5 5 4 5 5 4 5 5 5 6 6 7 6 7 7 7 7 7 9 8 5 5 7 7 6 7 7 5 7 5 2 4 3 6 10 11 11 11 11 10 8 8 8 8 7 10 11 8 10 12 14 17 18 18 17 16 15 15 15 14 14 15 14 13 12 13 17 18 19 18 17 17 15
4 5 5 5 4 4 4 5 4 5 5 5 6 5 6 6 6 6 6 6 5 6 7 7 6 7 6 6 6 7 7 7 8 8 8 7 7 8 7 6 6 6 4 4 3 4 5 8 10 9 10 10 8 9 9 9 8 11 13 8 9 13 14 16 17 18 17 16 15 15 15 14 15 16 14 14 13 14 17 18 19 18 18 17 16
5 5 5 5 6 6 5 6 6 6 6 5 6 6 6 7 6 6 7 6 6 7 6 7 8 7 7 7 7 7 7 6 6 6 6 8 8 7 6 8 7 6 6 5 3 7 5 4 8 9 8 7 10 12 10 9 10 13 13 7 6 12 14 15 17 17 17 16 16 16 15 15 16 15 15 15 14 14 17 19 19 18 18 17 16
5 5 5 6 6 6 7 6 7 6 6 6 6 6 6 6 6 6 8 7 8 8 7 7 8 8 8 8 8 8 7 6 8 8 9 9 8 6 6 5 7 8 5 6 6 6 7 6 5 8 8 9 12 12 12 11 9 16 13 8 7 9 14 15 15 15 16 16 16 17 16 17 15 15 16 15 15 14 18 19 19 19 18 17 17
6 6 7 7 7 6 7 7 6 6 7 7 7 7 7 7 6 6 8 7 7 8 8 7 7 7 7 8 8 7 7 6 6 7 8 8 9 7 7 8 7 8 7 6 7 6 4 8 6 5 9 9 12 11 10 8 11 13 10 9 8 9 13 15 14 14 13 15 17 17 19 16 16 16 15 14 13 16 20 20 20 19 18 17 17
6 6 6 7 7 8 8 8 7 7 7 7 7 8 7 7 7 7 6 7 8 8 7 7 7 7 7 7 5 6 7 7 7 8 8 10 10 10 9 9 8 9 8 9 8 5 4 4 5 5 7 9 9 6 8 7 10 13 10 8 9 8 15 14 13 13 13 14 14 17 18 18 17 16 15 16 15 19 20 21 20 19 18 18 16
7 8 8 8 8 8 8 8 8 9 8 8 8 7 7 7 7 7 6 6 7 8 8 8 8 8 9 10 9 8 7 7 7 8 8 8 9 9 9 8 8 9 10 9 9 4 4 5 3 4 4 3 6 7 6 5 9 11 9 7 7 11 15 11 12 12 12 14 14 14 14 16 18 17 16 16 18 20 20 21 20 19 18 16 14
7 8 8 8 8 8 8 9 9 8 8 9 8 9 8 7 7 7 7 7 8 9 9 9 9 9 9 10 9 8 7 7 7 7 7 8 8 8 8 8 8 8 8 9 10 10 2 3 3 4 5 5 6 7 11 5 8 14 7 7 9 13 10 7 11 13 14 14 14 13 13 14 16 17 17 17 18 19 18 19 18 18 15 16 16
10 11 12 12 13 12 12 11 11 11 13 12 8 7 9 9 8 8 8 9 9 8 8 9 9 10 11 11 10 9 7 6 6 7 8 9 9 9 9 8 9 8 8 8 10 10 5 2 2 4 3 3 3 7 9 6 9 6 5 7 10 9 8 6 7 15 14 14 13 13 13 13 14 15 16 15 14 14 15 16 16 14 16 17 16
8 9 11 10 10 12 12 13 13 12 13 14 12 12 12 11 9 7 8 9 9 9 8 10 9 9 9 11 11 9 8 9 7 8 8 8 8 8 9 8 8 9 8 8 9 9 10 4 4 2 3 5 5 5 8 6 4 7 7 8 8 8 9 7 6 7 14 12 12 11 11 11 11 12 13 14 13 13 14 14 14 16 17 17 16
9 9 10 10 11 11 13 14 13 12 11 11 10 10 9 10 11 10 10 11 10 9 9 9 10 9 10 10 11 10 8 8 8 6 7 8 8 8 9 8 9 9 9 9 8 9 10 7 5 5 4 4 5 6 8 6 8 7 10 10 9 8 8 8 7 5 9 12 12 12 11 11 10 9 10 13 13 15 15 15 15 17 17 16 16
11 10 10 11 12 12 12 13 14 13 13 13 14 11 12 12 11 12 11 11 9 9 10 10 10 9 10 11 11 11 9 9 9 7 7 8 8 8 8 8 8 9 8 9 10 8 8 8 5 5 5 5 4 4 6 1 2 9 9 8 9 10 10 8 8 7 6 10 10 11 10 10 9 8 10 13 15 15 16 16 16 17 17 17 16
9 9 9 9 11 12 11 12 13 14 13 14 15 14 12 11 13 13 13 13 13 13 11 10 9 10 10 10 10 11 11 11 9 8 6 8 8 8 8 8 8 8 8 8 10 8 8 8 4 3 4 3 4 3 3 6 6 6 6 9 10 10 10 9 7 7 10 10 8 8 9 8 8 8 10 13 15 16 17 17 17 17 17 17 17
11 10 10 9 10 11 12 13 13 14 14 13 13 14 14 13 12 12 11 11 12 12 11 10 10 10 10 11 10 9 10 9 9 8 8 8 8 8 8 8 7 7 8 8 6 6 6 7 7 2 3 6 4 5 7 7 10 8 8 9 8 10 11 9 7 6 5 5 4 4 5 5 6 7 10 13 15 17 17 17 17 17 17 17 17
10 10 10 11 11 12 13 12 13 13 13 13 12 13 14 13 14 14 12 12 13 11 9 11 10 9 10 10 10 10 10 11 11 10 9 7 6 8 8 8 8 7 8 8 8 7 8 8 6 5 4 4 8 8 6 6 7 7 11 9 7 8 9 11 9 6 6 6 6 7 6 5 5 6 8 12 14 16 16 16 17 17 16 17 17
10 11 11 11 11 11 11 12 13 12 12 13 13 13 13 12 11 12 12 11 11 11 10 10 9 9 9 9 10 10 10 10 10 9 9 9 6 7 7 7 7 8 8 7 8 8 6 7 6 7 5 6 4 2 6 7 7 5 7 9 10 10 8 8 10 11 8 7 6 5 7 6 6 7 8 10 14 15 16 16 17 16 16 16 16
10 10 11 12 13 13 13 13 13 12 12 12 11 11 11 12 11 11 11 11 11 11 10 10 10 10 10 9 9 9 10 13 16 15 15 13 7 7 5 7 8 9 8 6 3 4 7 7 7 6 5 5 7 6 8 11 11 13 11 7 8 8 9 8 7 8 9 10 7 7 6 5 5 5 5 5 6 13 14 15 13 17 17 16 17
12 13 13 13 13 13 13 14 13 12 11 10 13 16 15 12 13 12 12 13 13 12 11 9 9 10 10 9 9 13 15 16 16 16 18 20 18 9 7 6 8 8 7 7 7 8 7 7 7 7 8 8 8 10 9 11 9 7 10 7 11 9 9 8 7 6 8 9 9 8 7 7 7 5 5 5 6 8 7 9 9 11 15 16 17
10 10 9 11 11 11 12 12 13 11 10 10 15 14 15 17 13 12 12 11 11 11 11 11 11 11 11 10 8 10 12 13 15 18 17 20 23 17 14 11 10 9 8 8 8 9 8 9 8 8 8 9 9 10 9 8 8 10 11 9 11 12 11 13 11 7 7 10 9 8 7 7 8 8 6 6 6 7 7 8 13 15 16 17 17
8 9 10 11 12 12 12 13 13 12 12 13 16 15 14 15 13 11 11 11 11 12 12 12 11 10 10 10 8 8 8 9 9 8 10 15 21 24 17 13 13 14 13 10 9 8 8 8 8 9 10 10 11 11 9 9 9 9 9 9 12 13 12 11 11 12 10 11 10 9 8 7 7 7 7 7 7 6 8 10 15 16 17 17 16
9 11 12 13 14 13 14 15 14 13 12 14 16 18 19 19 18 15 13 14 14 14 13 13 13 12 10 10 10 9 8 14 12 11 12 12 14 18 22 18 15 15 15 15 14 11 9 10 10 9 10 9 9 8 9 12 10 12 11 9 9 11 11 11 10 9 11 11 9 9 9 9 8 8 7 8 8 7 8 13 17 16 17 17 16
11 12 13 14 14 14 13 13 14 14 15 16 19 20 18 17 17 15 14 15 15 15 15 14 13 13 12 12 11 10 9 9 8 9 10 11 12 11 10 11 11 14 15 15 16 16 12 9 8 9 9 8 9 10 13 9 12 12 14 13 12 12 12 11 10 10 11 11 12 9 8 9 8 8 7 8 9 8 8 13 18 17 17 17 16
11 11 11 12 11 10 11 12 12 12 11 17 13 10 10 12 12 11 9 13 14 14 15 14 15 14 13 13 12 12 11 11 10 10 8 9 11 11 10 10 11 12 11 11 11 10 9 7 8 9 8 8 11 10 10 12 15 15 15 17 16 12 9 7 9 10 10 10 9 9 9 9 8 8 7 8 8 7 7 14 19 18 17 16 16
11 11 11 11 12 13 13 14 15 14 13 15 17 20 22 22 23 15 12 15 15 16 16 15 15 14 14 14 14 13 13 13 14 14 12 11 12 12 12 9 9 10 10 11 15 14 12 11 11 11 9 8 9 9 10 12 13 12 10 6 5 12 12 11 10 10 10 10 10 8 7 9 9 8 7 8 8 6 6 8 16 19 17 17 17
12 12 11 11 10 12 14 14 14 16 15 16 14 14 16 19 18 14 10 10 12 15 16 16 16 15 14 14 14 14 14 14 15 15 15 12 12 13 12 12 10 8 8 8 14 17 17 16 16 16 13 11 13 13 14 19 15 11 8 8 8 9 12 11 10 11 10 11 9 8 8 9 9 7 8 8 8 7 6 6 6 13 17 17 16
11 10 11 12 12 12 13 14 14 14 13 15 19 20 20 19 17 14 11 12 17 18 16 15 14 14 16 27 24 17 16 15 18 17 16 14 13 14 15 12 12 10 7 7 5 9 16 17 15 13 14 13 13 15 19 17 14 12 11 13 10 8 11 10 12 11 9 11 10 8 9 9 10 6 9 7 7 4 6 6 6 7 9 11 15
12 10 11 12 13 12 12 15 20 21 17 17 21 22 22 21 16 12 13 12 12 13 12 15 15 14 14 17 26 23 19 17 19 17 17 16 13 12 14 14 13 12 9 5 6 7 8 8 6 7 6 10 11 9 11 13 13 9 11 13 13 12 11 10 11 10 9 8 11 10 8 9 11 8 11 8 4 4 4 7 6 6 7 6 7
Wind_Direction
38 123 128 140 141 347 347 359 68 153 235 209 246 208 193 238 243 268 266 257 287 333 343 326 294 189 190 250 268 245 189 206 258 167 56 80 122 185 195 192 186 185 192 196 198 196 205 183 194 195 199 205 209 200 207 199 212 219 222 193 223 225 217 228 239 249 251 257 274 298 306 297 297 297 302 315 324 319 322 325 333 341 344 349 1
141 150 135 165 148 167 153 167 43 328 312 311 233 213 212 220 256 260 278 334 350 333 329 323 325 319 244 197 230 267 248 189 201 130 212 91 245 187 194 195 189 189 193 197 199 196 206 182 195 201 197 206 210 207 203 225 214 217 220 214 212 223 228 228 237 242 253 268 286 296 301 300 297 295 302 308 309 315 319 324 333 339 342 351 20
65 86 40 31 68 90 129 133 145 191 167 263 316 284 121 269 248 302 346 336 326 326 326 324 315 311 335 335 291 218 226 219 191 118 114 165 250 213 199 197 194 192 193 197 198 199 202 194 195 201 201 208 204 216 202 208 217 217 213 209 215 223 224 233 235 244 258 270 275 287 295 294 283 287 295 298 306 315 320 329 336 339 351 355 11
108 86 9 133 146 110 104 202 177 148 175 342 298 301 319 310 4 34 11 337 319 317 312 304 304 310 324 332 338 323 272 209 204 136 194 202 302 268 181 202 199 196 198 196 198 201 201 206 196 200 202 208 205 207 213 201 217 223 209 212 216 217 225 229 234 240 255 261 264 271 287 279 278 283 292 300 312 319 332 329 356 339 2 7 17
128 154 168 297 78 114 114 281 244 303 163 175 300 317 289 254 241 221 209 238 288 287 293 292 288 297 309 316 323 324 332 322 268 205 172 166 176 227 183 185 189 198 205 202 201 199 204 207 210 197 200 209 204 203 206 203 219 216 210 208 213 215 220 225 228 231 251 256 254 263 265 265 271 280 291 302 315 349 357 330 15 335 23 12 18
155 158 155 59 155 182 162 195 83 139 289 249 217 165 278 265 268 244 261 265 274 278 277 286 304 311 309 330 327 316 318 315 315 323 332 135 206 206 258 184 178 189 199 211 205 203 204 209 216 202 201 207 210 208 210 206 219 225 219 219 217 212 217 222 225 231 241 255 252 251 256 259 267 278 288 301 323 59 295 19 336 321 119 171 139
150 172 160 163 231 167 126 162 186 117 349 271 239 241 240 257 243 268 275 288 296 309 333 323 315 306 312 315 308 318 314 310 317 309 304 25 39 327 253 249 162 177 190 189 213 208 206 211 214 213 205 207 208 209 215 206 216 219 219 220 215 209 215 218 223 227 233 242 242 243 245 252 261 272 286 303 317 323 302 133 273 285 171 150 143
183 166 151 112 251 142 55 108 175 172 188 201 222 233 251 278 286 320 306 280 288 293 281 283 286 292 297 296 300 304 302 305 307 312 295 172 160 201 223 227 205 177 186 186 192 206 208 211 214 220 221 204 204 208 214 212 218 222 215 218 216 212 214 217 219 222 227 233 239 237 240 247 257 268 282 300 345 323 316 302 275 233 177 140 145
194 199 131 132 178 65 167 197 217 183 183 170 193 181 298 290 311 319 305 304 306 287 275 261 270 265 267 271 275 279 286 286 281 276 287 279 243 167 179 258 248 204 184 185 184 195 205 208 214 219 221 215 201 204 218 213 218 222 219 220 219 218 216 211 208 213 219 229 233 234 237 241 251 265 280 306 332 302 321 314 269 199 157 147 144
295 310 119 93 5 184 153 214 218 184 182 182 183 196 205 195 225 235 184 254 296 288 268 238 245 260 258 254 262 267 269 273 283 295 293 287 278 190 183 191 260 229 189 187 185 182 191 204 212 217 220 219 207 204 214 222 220 221 223 221 222 224 215 207 193 203 214 221 229 233 234 240 248 261 277 305 308 307 303 287 206 168 150 149 144
284 222 100 154 240 137 231 127 219 230 206 209 210 199 204 80 337 279 262 211 252 274 283 275 258 276 278 270 262 260 267 269 272 272 273 278 285 288 186 161 203 231 204 201 179 183 178 187 201 211 218 219 215 206 211 222 224 226 225 224 223 229 232 215 195 197 206 217 227 230 235 240 246 259 273 305 310 306 293 212 171 157 147 147 142
300 307 39 133 180 186 249 217 168 183 208 224 251 248 145 144 223 245 277 279 258 261 247 256 269 273 278 280 271 268 254 258 264 262 267 273 278 279 272 155 145 236 261 215 174 187 183 177 193 201 210 213 215 212 211 217 222 227 227 223 219 228 226 208 182 191 203 216 223 228 233 236 243 251 274 303 309 306 272 158 150 151 148 145 140
344 345 17 290 293 186 255 252 216 152 151 231 222 180 10 270 258 262 265 279 259 250 242 225 287 282 259 261 269 260 263 258 260 266 263 262 257 263 269 221 158 191 219 220 185 176 185 184 181 202 207 203 209 213 213 217 222 224 226 227 223 223 224 219 197 194 204 213 222 227 229 233 238 249 254 244 282 286 181 154 149 147 146 143 140
354 3 40 29 46 169 230 236 214 183 216 243 237 188 200 241 265 263 186 275 279 263 196 104 229 239 271 287 273 265 251 252 250 252 254 257 258 266 265 266 199 182 182 182 180 176 189 183 190 197 205 210 192 200 212 218 224 224 219 222 223 218 220 224 206 204 206 212 220 225 227 230 237 246 218 225 254 216 158 160 150 146 145 141 140
329 334 322 321 161 209 230 264 258 213 208 232 231 220 97 281 256 245 245 214 258 267 230 172 230 223 329 330 283 302 253 235 242 245 247 250 257 257 257 253 255 183 180 173 167 166 173 197 203 207 208 214 177 191 201 208 216 218 216 214 214 211 217 221 216 203 204 205 217 222 223 226 230 232 239 252 224 170 157 153 149 149 146 140 139
336 338 317 293 302 318 298 174 250 241 215 224 229 226 194 202 223 241 233 264 231 238 226 203 208 156 240 218 248 278 301 264 250 248 229 239 245 249 252 249 248 228 173 165 183 151 159 209 212 207 220 209 205 199 194 201 211 213 208 210 206 203 214 217 216 215 183 196 210 217 218 221 225 226 215 230 182 163 161 159 151 146 141 137 138
3 336 330 347 359 332 317 306 292 271 221 220 233 239 242 238 236 230 224 235 262 261 236 214 208 205 218 246 225 230 236 301 4 281 213 240 237 240 242 247 251 227 164 179 182 165 188 208 218 220 213 209 205 216 206 195 202 208 203 202 202 199 205 216 218 213 194 187 201 204 211 216 231 225 213 207 179 167 161 160 148 145 142 141 143
352 353 348 345 340 330 311 296 281 296 289 290 292 284 267 247 225 225 242 229 243 263 265 220 211 222 239 228 236 268 347 12 33 305 56 239 275 272 269 259 242 236 167 192 176 175 205 217 218 223 204 207 208 208 215 213 204 198 190 197 195 198 197 206 217 215 191 196 192 198 204 214 218 212 213 189 176 172 167 160 152 147 141 144 143
6 349 340 330 317 341 349 345 344 332 315 290 273 268 256 258 254 263 254 264 263 272 260 256 271 237 237 245 243 233 270 295 259 320 299 264 209 242 260 261 266 252 203 172 188 188 176 235 246 235 208 208 212 209 206 208 211 210 203 189 190 189 191 198 205 215 204 199 199 202 203 203 208 203 199 183 164 172 173 158 148 144 141 147 145
342 333 318 308 327 336 322 332 322 305 317 318 309 303 289 263 256 243 248 245 222 237 263 261 254 255 333 277 254 250 258 256 241 239 275 292 284 274 243 252 265 289 65 150 202 207 187 192 231 252 225 213 215 207 202 204 207 213 217 205 187 184 191 194 198 206 210 203 200 205 201 200 204 201 190 166 167 170 167 153 148 143 144 148 144
311 284 297 321 320 305 328 312 303 307 304 308 316 327 320 313 297 261 252 239 227 247 261 275 280 272 271 251 254 245 233 237 242 204 230 247 264 263 271 259 245 239 225 133 191 209 206 213 216 238 239 226 215 204 199 201 202 208 211 206 184 185 187 191 195 198 207 206 205 203 203 203 206 196 187 167 167 172 160 154 149 144 147 148 145
283 293 319 309 299 310 298 304 303 306 314 301 303 299 312 316 306 298 265 258 240 218 230 252 250 260 252 283 278 261 234 267 243 227 229 225 252 256 252 259 256 234 205 148 162 192 189 215 226 229 241 233 229 214 200 200 199 205 207 202 195 186 190 189 192 196 200 204 205 206 203 205 206 195 182 171 169 173 163 156 150 147 150 149 148
267 265 260 275 278 284 305 299 302 299 288 300 308 303 293 292 296 299 291 270 253 235 233 232 234 240 247 232 240 244 247 244 220 218 224 226 230 250 250 246 247 266 226 183 163 168 182 197 214 235 242 239 226 218 210 206 196 209 200 195 197 191 190 188 189 194 197 200 201 206 208 207 203 194 180 172 174 173 169 156 151 150 151 150 150
280 275 264 257 266 265 264 270 274 285 291 298 295 301 297 288 288 281 273 276 268 251 242 241 228 237 239 233 231 247 259 251 251 243 234 239 237 258 266 269 258 237 223 180 167 158 171 191 204 220 232 238 220 212 211 210 201 199 191 195 196 191 189 188 188 191 194 194 196 204 208 206 199 194 175 175 177 180 172 158 152 152 153 151 151
259 267 270 279 276 271 262 258 255 256 282 292 288 286 289 290 281 276 276 275 274 266 250 246 234 225 232 229 229 222 235 241 255 260 256 262 246 258 255 243 252 253 224 177 194 174 174 185 198 213 221 230 224 205 209 207 208 190 187 195 201 201 189 188 188 189 190 191 192 200 207 198 195 190 173 178 180 180 170 161 152 154 154 152 152
263 256 253 263 267 272 278 277 274 278 280 279 283 287 289 288 286 284 280 273 269 269 268 259 246 242 235 239 236 235 232 218 232 240 238 234 249 247 255 253 243 256 249 226 188 170 193 187 187 198 220 222 228 220 197 200 201 187 184 186 191 197 189 185 186 186 187 189 191 198 201 190 194 186 176 178 180 180 164 159 153 155 155 154 154
254 261 265 268 266 266 267 269 270 268 264 267 268 273 277 278 277 279 283 279 273 270 267 264 254 244 236 238 241 235 229 211 207 238 239 238 236 236 236 250 253 243 253 242 205 196 188 171 182 199 217 215 225 220 196 194 184 184 186 182 182 187 182 186 185 184 187 187 190 196 192 189 187 180 182 182 181 173 159 156 154 157 156 156 155
264 269 266 265 268 269 271 271 272 272 272 269 269 270 272 273 281 287 285 284 284 278 272 271 262 250 245 238 235 238 230 211 203 216 223 232 230 232 233 241 251 259 232 243 229 239 184 184 169 185 214 219 227 220 195 183 174 178 181 184 174 183 183 183 182 182 185 184 188 196 184 180 178 183 187 186 184 165 157 158 159 159 158 158 157
267 269 273 272 274 273 271 272 271 269 268 267 268 268 267 268 269 278 281 282 281 281 280 274 269 266 258 239 235 233 227 217 203 202 220 235 235 227 212 217 228 245 252 251 240 233 206 186 189 165 190 230 226 213 190 182 177 168 174 183 164 168 180 180 180 181 182 184 192 186 179 171 180 183 186 187 187 157 159 162 163 162 159 161 159
255 257 258 263 265 269 274 274 276 275 268 262 257 259 260 258 257 261 271 282 284 285 282 277 275 272 263 267 243 231 221 217 217 210 210 219 223 222 222 219 209 227 239 248 258 200 212 181 174 165 161 214 267 242 190 176 171 166 170 172 160 165 171 178 180 179 178 181 184 184 174 176 182 182 184 191 176 158 163 168 168 165 163 161 156
261 262 264 265 264 264 265 265 264 264 268 272 269 260 257 257 251 251 252 261 273 279 278 277 274 268 264 260 255 245 227 220 213 214 218 222 223 219 220 213 214 215 234 245 259 237 177 211 184 180 167 186 256 311 263 177 174 168 174 162 155 152 161 173 173 174 166 162 180 174 166 176 182 182 185 189 166 165 168 172 170 166 166 154 146
257 261 263 265 264 266 268 272 271 271 269 263 262 268 266 257 251 246 244 245 253 264 273 275 279 276 274 269 262 254 236 226 216 201 217 223 225 228 228 223 220 215 222 241 245 256 231 203 154 175 177 157 174 204 248 190 177 178 173 153 143 139 153 158 168 157 152 159 155 150 161 177 183 182 184 188 177 172 174 172 171 167 154 142 145
267 268 270 270 270 268 266 265 267 268 267 265 263 262 257 258 256 253 249 250 256 256 264 271 277 283 281 279 275 273 269 247 210 210 215 218 222 231 224 227 238 226 218 229 244 256 259 201 186 191 152 117 135 183 243 225 171 205 150 119 132 145 142 144 146 142 145 146 147 155 167 178 182 180 180 185 182 171 170 168 166 151 142 146 148
281 279 275 273 275 278 274 265 257 256 265 272 265 255 259 265 266 261 261 253 248 255 257 264 268 274 280 281 279 272 263 262 242 210 209 216 212 219 223 221 227 230 209 217 230 238 250 186 201 168 168 141 125 149 207 246 155 167 134 133 141 140 139 125 116 116 132 133 138 148 159 167 165 173 181 183 178 159 160 161 153 145 148 149 149
284 287 292 294 292 291 290 289 288 287 283 276 278 279 273 269 273 278 278 266 253 251 250 253 258 261 267 274 277 276 272 269 264 234 213 220 213 217 220 210 221 225 222 215 222 232 239 233 186 193 174 150 146 161 190 236 171 153 142 144 147 141 128 121 116 98 119 126 130 134 137 137 140 151 161 162 154 155 155 154 151 148 149 150 150
284 282 285 288 289 285 284 289 291 284 280 282 280 284 287 282 276 272 271 275 266 248 247 247 251 253 259 266 275 283 279 270 265 255 225 220 217 217 220 214 217 220 216 213 214 225 235 239 201 180 159 147 114 160 202 144 248 172 159 152 147 144 137 114 112 115 103 116 127 130 130 132 139 150 150 149 151 154 154 154 154 151 151 151 150
290 289 280 279 279 278 278 281 283 283 282 282 279 276 278 282 278 271 265 266 269 263 255 258 261 264 263 262 262 267 274 273 269 264 243 212 219 224 221 220 219 221 226 226 226 222 235 243 226 170 134 111 91 139 178 167 214 201 156 159 164 149 115 109 103 97 99 98 104 119 123 131 141 146 153 154 154 156 156 156 155 153 153 153 151
281 280 284 285 284 284 283 279 275 276 280 279 279 278 273 273 277 278 275 272 272 272 258 242 242 247 258 261 264 264 270 273 272 272 266 233 220 223 223 222 217 215 223 228 226 230 219 234 236 195 125 129 154 202 176 169 195 174 186 173 160 121 124 116 112 129 137 135 135 109 109 116 120 137 155 158 157 157 157 156 156 155 156 155 152
293 289 284 284 282 280 281 280 281 280 278 277 278 280 281 278 277 277 279 279 278 274 268 256 247 243 249 256 259 260 260 267 273 276 278 269 234 227 217 220 213 211 221 226 213 216 217 217 219 210 154 136 171 192 161 178 209 185 158 172 141 129 131 139 139 146 149 133 115 141 149 141 133 137 151 156 156 156 155 156 156 157 159 157 153
277 276 281 280 279 280 278 278 278 280 282 281 279 280 281 283 282 280 274 273 276 277 273 265 252 243 243 249 255 264 270 272 275 278 278 275 256 229 218 210 206 209 222 225 221 211 213 223 214 198 175 146 165 85 132 168 192 204 180 173 150 150 145 148 155 153 151 131 132 115 115 107 92 98 121 146 156 157 156 157 158 158 161 159 155
271 271 269 270 272 271 273 274 273 269 266 267 270 272 277 278 281 283 284 282 280 276 274 278 275 261 252 249 248 248 257 266 269 275 276 279 296 297 248 209 198 211 215 215 179 236 226 210 212 203 173 165 178 178 184 184 191 189 178 162 138 145 140 143 159 160 148 146 139 137 150 156 139 147 140 137 158 161 161 161 164 163 163 161 157
261 261 260 260 262 266 268 271 272 271 265 263 263 264 263 267 271 274 275 277 279 283 286 286 283 279 265 250 248 252 255 260 263 264 272 279 278 267 261 240 220 195 210 210 207 213 219 210 200 201 172 187 180 187 199 191 181 160 163 157 145 146 138 143 150 165 159 151 148 157 167 164 153 152 155 145 156 163 162 165 170 167 164 161 159
267 272 276 278 277 276 273 270 267 266 268 269 269 266 266 266 268 269 269 270 275 277 278 278 276 272 272 268 260 253 255 260 266 266 260 269 275 269 266 255 215 199 195 202 206 206 201 215 207 196 185 179 184 188 198 178 177 173 181 159 147 152 158 156 165 163 180 163 154 156 165 169 159 156 166 157 159 168 166 173 164 164 164 163 162
279 281 280 278 277 274 271 270 268 269 269 268 268 266 262 262 260 263 268 270 269 270 268 267 267 266 262 262 262 258 251 249 258 271 259 250 256 262 255 246 225 206 197 193 199 203 203 211 212 202 191 196 185 180 184 178 178 181 180 167 163 160 162 167 165 176 173 168 156 160 163 169 168 161 163 162 169 174 174 161 163 166 167 167 167
279 274 273 272 269 267 264 264 265 266 269 266 265 267 267 266 264 263 267 268 267 265 261 260 260 262 263 259 258 258 258 256 258 265 269 272 273 261 252 240 227 217 216 208 202 202 195 206 215 211 203 203 195 180 172 187 181 171 178 174 173 170 168 169 167 158 166 168 157 159 166 172 172 170 170 160 166 175 163 160 167 170 169 167 169
271 268 265 264 265 264 265 268 269 267 266 267 259 254 254 255 257 256 257 260 260 259 257 255 255 256 254 255 252 252 252 254 253 255 267 276 271 266 254 242 235 233 223 215 215 212 203 205 202 212 212 196 198 182 186 181 176 181 179 187 176 176 172 172 162 159 160 169 170 154 153 172 178 169 178 159 166 170 162 166 169 171 172 171 169
277 274 274 274 272 277 280 276 273 269 264 264 274 290 291 282 278 275 266 265 259 256 253 251 251 250 251 251 250 248 248 249 244 242 251 262 270 271 256 233 233 231 224 216 216 215 211 204 199 214 217 200 206 195 177 171 193 193 186 183 180 163 155 137 143 148 159 174 166 161 165 166 178 171 179 153 163 160 151 166 169 171 172 170 169
279 278 278 279 280 278 277 279 277 275 273 264 267 272 274 275 274 272 261 262 262 260 256 251 248 246 246 247 247 245 245 247 245 234 236 250 266 272 285 283 245 228 225 215 212 209 208 206 209 212 218 223 218 196 173 184 205 197 194 148 139 156 163 160 155 152 163 183 184 168 150 168 180 172 156 145 135 116 140 158 174 170 171 169 169
278 278 282 282 285 285 284 282 280 274 269 264 258 256 257 258 260 258 249 245 252 257 255 251 248 244 240 240 242 244 241 243 240 228 224 229 255 266 267 271 272 251 227 218 208 206 211 212 208 207 205 204 212 205 205 196 195 189 149 160 197 181 164 157 149 160 170 178 196 177 151 161 181 167 139 140 127 131 139 148 160 173 169 169 168
278 281 282 281 277 272 268 266 266 267 268 266 269 266 258 250 244 248 240 243 250 252 256 254 249 243 241 242 243 240 240 237 234 227 216 215 236 253 265 263 267 263 244 214 191 206 212 215 213 207 206 193 197 205 208 218 194 174 163 176 183 194 174 163 157 168 162 181 193 177 149 170 175 153 130 107 97 112 131 132 140 155 166 168 167
292 293 289 285 283 278 274 273 268 263 263 262 254 250 248 246 244 242 241 241 242 239 240 248 251 249 244 241 242 242 239 235 232 225 212 209 224 231 249 261 258 259 249 218 220 197 183 198 192 192 212 203 201 199 217 198 207 183 191 187 164 179 180 161 155 150 157 192 196 189 154 165 173 156 138 130 128 128 114 132 134 143 162 162 167